EW8153 Weather Reports


time (UTC)temp
C
wind
direction
speed
KPH
gust
KPH
rain 1hr
cm
rain 24hr
cm
rain mn
cm
humidity
%
barometer
mb
20260505181026 13 71 1.6 6.4 0.00 0.00 0.00 61 1011.4
20260505180524 13 76 1.6 8.0 0.00 0.00 0.00 60 1011.3
20260505180040 13 34 1.6 8.0 0.00 0.00 0.00 58 1011.4
20260505175524 14 309 1.6 6.4 0.00 0.00 0.00 58 1011.5
20260505175024 14 26 1.6 6.4 0.00 0.00 0.00 57 1011.5
20260505174541 14 309 1.6 6.4 0.00 0.00 0.00 57 1011.5
20260505174026 14 9 1.6 6.4 0.00 0.00 0.00 56 1011.5
20260505173523 14 51 1.6 9.7 0.00 0.00 0.00 55 1011.5
20260505173041 15 22 1.6 9.7 0.00 0.00 0.00 53 1011.6
20260505172523 15 61 1.6 8.0 0.00 0.00 0.00 52 1011.6
20260505172023 15 137 1.6 8.0 0.00 0.00 0.00 53 1011.6
20260505171540 15 111 1.6 11.3 0.00 0.00 0.00 53 1011.7
20260505171027 15 93 3.2 11.3 0.00 0.00 0.00 52 1011.7
20260505170524 15 301 1.6 9.7 0.00 0.00 0.00 52 1011.6
20260505170038 15 292 3.2 9.7 0.00 0.00 0.00 52 1011.6
20260505165524 15 325 1.6 12.9 0.00 0.00 0.00 51 1011.7
20260505165024 15 120 4.8 12.9 0.00 0.00 0.00 50 1011.7
20260505164538 15 51 1.6 11.3 0.00 0.00 0.00 51 1011.6
20260505164025 15 129 3.2 16.1 0.00 0.00 0.00 51 1011.6
20260505163526 15 105 4.8 16.1 0.00 0.00 0.00 50 1011.7
20260505163043 15 0 3.2 12.9 0.00 0.00 0.00 51 1011.6
20260505162523 15 38 1.6 9.7 0.00 0.00 0.00 51 1011.7
20260505162024 15 162 3.2 8.0 0.00 0.00 0.00 52 1011.7
20260505161541 15 18 1.6 16.1 0.00 0.00 0.00 52 1011.6
20260505161026 15 22 3.2 16.1 0.00 0.00 0.00 52 1011.6
20260505160524 15 93 1.6 11.3 0.00 0.00 0.00 52 1011.5
20260505153037 16 126 3.2 11.3 0.00 0.00 0.00 50 1011.6
20260505152523 16 190 3.2 12.9 0.00 0.00 0.00 48 1011.6
20260505152027 16 162 1.6 12.9 0.00 0.00 0.00 49 1011.6
20260505151537 16 347 1.6 16.1 0.00 0.00 0.00 50 1011.6
20260505151025 16 344 3.2 16.1 0.00 0.00 0.00 49 1011.7
20260505150524 16 137 6.4 16.1 0.00 0.00 0.00 47 1011.7
20260505140524 16 78 3.2 14.5 0.00 0.00 0.00 53 1011.9
20260505130104 16 221 3.2 12.9 0.00 0.00 0.00 54 1012.0
20260505125023 16 93 3.2 14.5 0.00 0.00 0.00 55 1012.0
20260505124541 16 41 3.2 14.5 0.00 0.00 0.00 57 1012.0
20260505124023 16 319 1.6 14.5 0.00 0.00 0.00 57 1012.1
20260505123525 16 51 3.2 14.5 0.00 0.00 0.00 57 1012.0
20260505123043 16 38 1.6 14.5 0.00 0.00 0.00 57 1012.1
20260505122523 16 97 3.2 11.3 0.00 0.00 0.00 57 1012.1
20260505122024 16 68 3.2 11.3 0.00 0.00 0.00 56 1012.2
20260505121535 16 340 3.2 12.9 0.00 0.00 0.00 55 1012.1
20260505121024 16 225 4.8 12.9 0.00 0.00 0.00 54 1012.1
20260505120524 16 51 3.2 16.1 0.00 0.00 0.00 55 1012.1
20260505120039 16 48 3.2 16.1 0.00 0.00 0.00 56 1012.2
20260505115523 16 51 4.8 16.1 0.00 0.00 0.00 57 1012.1
20260505115023 16 305 3.2 12.9 0.00 0.00 0.00 59 1012.1
20260505114538 16 57 3.2 14.5 0.00 0.00 0.00 59 1012.1
20260505114024 16 24 3.2 14.5 0.00 0.00 0.00 58 1012.1
20260505113523 16 80 3.2 14.5 0.00 0.00 0.00 56 1012.2
20260505113044 16 9 3.2 14.5 0.00 0.00 0.00 59 1012.1
20260505112523 16 43 3.2 14.5 0.00 0.00 0.00 61 1012.1
20260505112023 15 300 3.2 14.5 0.00 0.00 0.00 59 1012.2
20260505111540 15 337 3.2 14.5 0.00 0.00 0.00 64 1012.1
20260505111023 15 93 3.2 14.5 0.00 0.00 0.00 65 1012.1
20260505110524 15 162 1.6 12.9 0.00 0.00 0.00 65 1012.1
20260505102023 15 93 4.8 17.7 0.00 0.00 0.00 66 1012.2
20260505101540 15 72 3.2 17.7 0.00 0.00 0.00 68 1012.1
20260505101023 15 341 3.2 14.5 0.00 0.00 0.00 66 1012.1
20260505100526 15 178 3.2 14.5 0.00 0.00 0.00 66 1012.1
20260505100037 15 265 3.2 14.5 0.00 0.00 0.00 65 1012.1
20260505095524 15 9 3.2 14.5 0.00 0.00 0.00 66 1012.1
20260505095023 15 66 3.2 14.5 0.00 0.00 0.00 69 1012.1
20260505094537 15 323 3.2 14.5 0.00 0.00 0.00 69 1012.1
20260505094023 15 268 3.2 14.5 0.00 0.00 0.00 68 1012.1
20260505093524 15 327 4.8 14.5 0.00 0.00 0.00 67 1012.1
20260505093036 15 49 3.2 14.5 0.00 0.00 0.00 66 1012.1
20260505092529 15 20 4.8 14.5 0.00 0.00 0.00 68 1012.1
20260505092023 15 46 4.8 14.5 0.00 0.00 0.00 70 1012.0
20260505091541 15 309 1.6 12.9 0.00 0.00 0.00 71 1012.2
20260505091028 15 280 3.2 20.9 0.00 0.00 0.00 70 1012.2
20260505090524 15 0 3.2 20.9 0.00 0.00 0.00 72 1012.2
20260505090041 15 9 4.8 17.7 0.00 0.00 0.00 71 1012.3
20260505085524 15 321 4.8 16.1 0.00 0.00 0.00 72 1012.4
20260505085024 15 259 4.8 16.1 0.00 0.00 0.00 74 1012.3
20260505084538 14 311 3.2 14.5 0.00 0.00 0.00 76 1012.3
20260505084023 13 332 4.8 14.5 0.00 0.00 0.00 78 1012.3
20260505083522 13 51 3.2 14.5 0.00 0.00 0.00 78 1012.5
20260505083036 13 291 3.2 14.5 0.00 0.00 0.00 79 1012.5
20260505082524 12 71 1.6 14.5 0.00 0.00 0.00 81 1012.5
20260505082026 12 309 3.2 14.5 0.00 0.00 0.00 80 1012.5
20260505081543 12 64 3.2 16.1 0.00 0.00 0.00 79 1012.5
20260505081024 12 38 3.2 16.1 0.00 0.00 0.00 80 1012.5
20260505080523 12 229 3.2 16.1 0.00 0.00 0.00 79 1012.5
20260505080044 12 200 3.2 12.9 0.00 0.00 0.00 80 1012.5
20260505075523 12 36 3.2 12.9 0.00 0.00 0.00 81 1012.5
20260505075025 12 131 3.2 12.9 0.00 0.00 0.00 81 1012.6
20260505074540 12 0 3.2 12.9 0.00 0.00 0.00 82 1012.5
20260505074023 12 185 3.2 14.5 0.00 0.00 0.00 83 1012.5
20260505073527 12 104 3.2 14.5 0.00 0.00 0.00 82 1012.6
20260505073046 12 16 3.2 14.5 0.00 0.00 0.00 83 1012.6
20260505072524 12 30 3.2 9.7 0.00 0.00 0.00 83 1012.7
20260505072023 12 80 1.6 12.9 0.00 0.00 0.00 83 1012.7
20260505071549 12 30 1.6 12.9 0.00 0.00 0.00 83 1012.7
20260505071023 12 330 3.2 16.1 0.00 0.00 0.00 84 1012.6
20260505070523 12 239 3.2 16.1 0.00 0.00 0.00 85 1012.7
20260505070036 11 150 3.2 16.1 0.00 0.00 0.00 87 1012.7
20260505065527 11 342 3.2 11.3 0.00 0.00 0.00 88 1012.6
20260505065026 11 325 1.6 9.7 0.00 0.00 0.00 89 1012.5
20260505064535 11 316 3.2 11.3 0.00 0.00 0.00 89 1012.5
20260505064026 10 309 1.6 11.3 0.00 0.00 0.00 90 1012.5
20260505063523 10 289 1.6 12.9 0.00 0.00 0.00 90 1012.5
20260505063038 10 9 3.2 12.9 0.00 0.00 0.00 90 1012.4
20260505062524 10 239 1.6 14.5 0.00 0.00 0.00 90 1012.6
20260505062024 10 26 1.6 14.5 0.00 0.00 0.00 91 1012.6
20260505061539 10 15 1.6 9.7 0.00 0.00 0.00 91 1012.8
20260505061023 10 309 1.6 9.7 0.00 0.00 0.00 92 1012.8
20260505060526 10 110 1.6 11.3 0.00 0.00 0.00 93 1012.8
20260505060039 10 323 1.6 11.3 0.00 0.00 0.00 93 1012.7
20260505055527 10 9 1.6 9.7 0.00 0.00 0.00 93 1012.6
20260505055023 10 46 3.2 8.0 0.00 0.00 0.00 94 1012.4
20260505054550 9 304 3.2 8.0 0.00 0.00 0.00 94 1012.3
20260505054025 9 38 1.6 8.0 0.00 0.00 0.00 94 1012.5
20260505053525 9 38 3.2 8.0 0.00 0.00 0.00 94 1012.5
20260505053054 9 137 1.6 8.0 0.00 0.00 0.00 94 1012.4
20260505052526 9 48 1.6 8.0 0.00 0.00 0.00 94 1012.4
20260505052024 9 75 1.6 8.0 0.00 0.00 0.00 94 1012.4
20260505051544 9 110 1.6 8.0 0.00 0.00 0.00 94 1012.4
20260505051023 9 9 1.6 8.0 0.00 0.00 0.00 94 1012.6
20260505050525 9 41 1.6 8.0 0.00 0.00 0.00 94 1012.4
20260505041536 9 239 1.6 8.0 0.00 0.00 0.00 94 1012.7
20260505041023 9 0 1.6 6.4 0.00 0.00 0.00 94 1012.8
20260505040527 9 34 1.6 9.7 0.00 0.00 0.00 94 1012.8
20260505040106 9 34 1.6 9.7 0.00 0.00 0.00 94 1012.9
20260505035523 9 232 1.6 9.7 0.00 0.00 0.00 94 1013.0
20260505035023 9 26 1.6 6.4 0.00 0.00 0.00 94 1013.0
20260505034540 9 0 1.6 6.4 0.00 0.00 0.00 94 1013.1
20260505034025 10 46 1.6 9.7 0.00 0.00 0.00 94 1013.1
20260505033523 10 0 1.6 9.7 0.00 0.00 0.00 94 1013.2
20260505033041 10 47 1.6 9.7 0.00 0.00 0.00 94 1013.2
20260505032526 10 316 1.6 6.4 0.00 0.00 0.00 94 1013.3
20260505032026 10 48 1.6 11.3 0.00 0.00 0.00 94 1013.3
20260505031536 10 137 1.6 11.3 0.00 0.00 0.00 94 1013.4
20260505031025 10 239 1.6 11.3 0.00 0.00 0.00 94 1013.4
20260505030523 10 93 0.0 4.8 0.00 0.00 0.00 94 1013.3
20260505030037 10 239 1.6 6.4 0.00 0.00 0.00 94 1013.2
20260505025525 10 0 1.6 9.7 0.00 0.00 0.00 94 1013.2
20260505025023 10 34 1.6 9.7 0.00 0.00 0.00 94 1013.3
20260505024540 10 131 1.6 8.0 0.00 0.00 0.00 94 1013.4
20260505024023 10 68 1.6 6.4 0.00 0.00 0.00 94 1013.3
20260505023523 10 70 1.6 4.8 0.00 0.00 0.00 94 1013.3
20260505023039 10 342 1.6 4.8 0.00 0.00 0.00 94 1013.3
20260505022522 10 178 1.6 6.4 0.00 0.00 0.00 94 1013.4
20260505022023 10 0 0.0 6.4 0.00 0.00 0.00 94 1013.5
20260505021538 10 330 1.6 6.4 0.00 0.00 0.00 94 1013.4
20260505021023 10 65 1.6 6.4 0.00 0.00 0.00 94 1013.5
20260505020523 10 0 1.6 4.8 0.00 0.00 0.00 94 1013.4
20260505020037 10 330 1.6 4.8 0.00 0.00 0.00 94 1013.4
20260505015523 10 309 1.6 6.4 0.00 0.00 0.00 94 1013.4
20260505015023 10 0 1.6 6.4 0.00 0.00 0.00 94 1013.5
20260505014536 10 51 1.6 6.4 0.00 0.00 0.00 94 1013.6
20260505014025 10 319 0.0 6.4 0.00 0.00 0.00 94 1013.6
20260505013523 10 0 1.6 8.0 0.00 0.00 0.00 94 1013.7
20260505013037 10 68 1.6 8.0 0.00 0.00 0.00 94 1013.7
20260505012526 10 9 1.6 8.0 0.00 0.00 0.00 94 1013.7
20260505012023 10 74 1.6 4.8 0.00 0.00 0.00 94 1013.7
20260505011541 10 13 1.6 4.8 0.00 0.00 0.00 94 1013.8
20260505011023 10 61 0.0 4.8 0.00 0.00 0.00 94 1013.9
20260505010522 10 44 1.6 6.4 0.00 0.00 0.00 94 1013.8
20260505010038 10 9 1.6 6.4 0.00 0.00 0.00 94 1013.8
20260505005527 10 226 1.6 6.4 0.00 0.00 0.00 93 1013.7
20260505005027 10 279 1.6 6.4 0.00 0.00 0.00 94 1013.7
20260505004541 10 32 1.6 6.4 0.00 0.00 0.00 94 1013.8
20260505004022 10 22 1.6 8.0 0.00 0.00 0.00 94 1013.8
20260505003524 10 83 1.6 8.0 0.00 0.00 0.00 94 1013.9
20260505003037 10 32 1.6 6.4 0.00 0.00 0.00 94 1014.1
20260505002523 10 239 1.6 6.4 0.00 0.00 0.00 94 1014.4
20260505002023 10 0 1.6 8.0 0.00 0.00 0.00 94 1014.4
20260505001537 10 0 1.6 9.7 0.00 0.00 0.00 94 1014.2
20260505001022 10 0 1.6 9.7 0.00 0.00 0.00 93 1014.2
20260505000523 10 30 3.2 8.0 0.00 0.00 0.00 93 1014.3
20260505000036 10 38 1.6 8.0 0.00 0.00 0.00 93 1014.3
20260504235523 10 292 1.6 8.0 0.00 0.00 0.00 93 1014.5
20260504235023 10 59 1.6 8.0 0.00 0.00 0.00 93 1014.5
20260504234543 10 22 1.6 8.0 0.00 0.00 0.00 93 1014.4
20260504234022 10 93 1.6 9.7 0.00 0.00 0.00 93 1014.3
20260504233522 10 80 3.2 11.3 0.00 0.00 0.00 92 1014.1
20260504233043 10 55 3.2 11.3 0.00 0.00 0.00 92 1014.1
20260504232523 11 48 1.6 12.9 0.00 0.00 0.00 93 1014.2
20260504232023 11 128 3.2 12.9 0.00 0.00 0.00 92 1014.2
20260504231541 11 0 1.6 9.7 0.00 0.00 0.00 92 1014.1
20260504231023 11 221 1.6 9.7 0.00 0.00 0.00 92 1014.1
20260504230523 11 9 0.0 6.4 0.00 0.00 0.00 92 1014.1
20260504230037 11 43 1.6 8.0 0.00 0.00 0.00 92 1014.1
20260504225526 11 83 1.6 9.7 0.00 0.00 0.00 92 1014.1
20260504225023 11 141 3.2 9.7 0.00 0.00 0.00 92 1014.2
20260504224536 11 72 1.6 9.7 0.00 0.00 0.00 92 1014.2
20260504224024 11 0 1.6 9.7 0.00 0.00 0.00 92 1014.2
20260504223524 11 57 1.6 11.3 0.00 0.00 0.00 92 1014.2
20260504223040 11 93 1.6 11.3 0.00 0.00 0.00 92 1014.3
20260504222522 11 115 3.2 8.0 0.00 0.00 0.00 92 1014.4
20260504222025 11 59 3.2 6.4 0.00 0.00 0.00 93 1014.5
20260504221541 11 120 1.6 8.0 0.00 0.00 0.00 93 1014.5
20260504221022 11 51 1.6 9.7 0.00 0.00 0.00 93 1014.5
20260504220522 11 68 1.6 12.9 0.00 0.00 0.00 93 1014.6
20260504220048 11 93 3.2 12.9 0.00 0.00 0.00 93 1014.7
20260504215522 11 74 4.8 12.9 0.00 0.00 0.00 93 1014.6
20260504215023 11 0 3.2 9.7 0.00 0.00 0.00 94 1014.7
20260504214548 11 76 1.6 8.0 0.00 0.00 0.00 94 1014.6
20260504214023 11 72 1.6 9.7 0.00 0.00 0.00 94 1014.6
20260504213523 11 26 1.6 9.7 0.00 0.00 0.00 94 1014.6
20260504213047 11 49 1.6 9.7 0.00 0.00 0.00 94 1014.7
20260504212523 11 0 1.6 6.4 0.00 0.00 0.00 94 1014.7
20260504212022 11 26 0.0 6.4 0.00 0.00 0.00 94 1014.7
20260504211537 11 38 1.6 4.8 0.00 0.00 0.00 94 1014.6
20260504211023 11 26 0.0 3.2 0.00 0.00 0.00 94 1014.6
20260504210523 11 0 0.0 4.8 0.00 0.00 0.00 94 1014.7
20260504210034 11 0 0.0 4.8 0.00 0.00 0.00 94 1014.5
20260504205523 11 341 1.6 4.8 0.00 0.00 0.00 94 1014.5
20260504205025 11 309 0.0 4.8 0.00 0.00 0.00 94 1014.5
20260504204539 11 287 1.6 4.8 0.00 0.00 0.00 94 1014.6
20260504204025 11 9 1.6 4.8 0.00 0.00 0.00 94 1014.5
20260504203525 11 291 1.6 4.8 0.00 0.00 0.00 94 1014.6
20260504203038 11 298 1.6 4.8 0.00 0.00 0.00 94 1014.6
20260504202523 11 0 0.0 4.8 0.00 0.00 0.00 93 1014.6
20260504202025 11 0 0.0 4.8 0.00 0.00 0.00 93 1014.6
20260504201538 11 0 1.6 4.8 0.00 0.00 0.00 93 1014.6
20260504201026 11 266 1.6 3.2 0.00 0.00 0.00 92 1014.5
20260504200523 11 255 0.0 4.8 0.00 0.00 0.00 92 1014.4
20260504200042 11 0 0.0 4.8 0.00 0.00 0.00 92 1014.3
20260504195522 11 0 0.0 3.2 0.00 0.00 0.00 91 1014.4
20260504195023 11 0 0.0 1.6 0.00 0.00 0.00 91 1014.4
20260504194540 11 0 0.0 3.2 0.00 0.00 0.00 91 1014.4
20260504194025 11 0 0.0 3.2 0.00 0.00 0.00 91 1014.3
20260504193523 11 0 0.0 3.2 0.00 0.00 0.00 91 1014.3
20260504193040 11 265 1.6 3.2 0.00 0.00 0.00 91 1014.3
20260504192522 12 0 0.0 3.2 0.00 0.00 0.00 90 1014.2
20260504192022 12 0 0.0 3.2 0.00 0.00 0.00 90 1014.2
20260504191551 12 309 0.0 3.2 0.00 0.00 0.00 90 1014.1
20260504191027 12 137 0.0 3.2 0.00 0.00 0.00 90 1014.1
20260504190523 12 0 0.0 3.2 0.00 0.00 0.00 90 1014.1
20260504190043 12 309 0.0 3.2 0.00 0.00 0.00 89 1014.0
20260504185523 12 51 0.0 4.8 0.00 0.00 0.00 89 1014.0
20260504185022 12 0 0.0 4.8 0.00 0.00 0.00 89 1014.0
20260504184550 12 334 0.0 4.8 0.00 0.00 0.00 89 1013.9
20260504184025 12 0 1.6 3.2 0.00 0.00 0.00 89 1014.0
20260504183527 13 0 0.0 3.2 0.00 0.00 0.00 89 1014.0
20260504183044 13 193 0.0 3.2 0.00 0.00 0.00 89 1014.0
20260504182522 13 303 0.0 4.8 0.00 0.00 0.00 89 1014.1
20260504182026 13 239 0.0 4.8 0.00 0.00 0.00 89 1014.0
20260504181546 13 265 1.6 4.8 0.00 0.00 0.00 88 1014.0